Time,TemperatureF,DewpointF,PressureIn,WindDirection,WindDirectionDegrees,WindSpeedMPH,WindSpeedGustMPH,Humidity,HourlyPrecipIn,Conditions,Clouds,dailyrainin,SoftwareType,DateUTC
2013-01-20 00:02:00,39.0,-99.9,-100.00,SE,135,4.0,4.0,-999,-99.99,,,-99.99,,2013-01-20 08:02:00,
2013-01-20 00:12:00,38.0,-99.9,-100.00,SE,135,5.0,6.0,-999,-99.99,,,-99.99,,2013-01-20 08:12:00,
2013-01-20 00:22:00,38.0,-99.9,-100.00,SE,135,5.0,6.0,-999,-99.99,,,-99.99,,2013-01-20 08:22:00,
2013-01-20 00:32:00,38.0,-99.9,-100.00,SE,135,4.0,6.0,-999,-99.99,,,-99.99,,2013-01-20 08:32:00,
2013-01-20 00:42:00,38.0,-99.9,-100.00,SE,135,3.0,6.0,-999,-99.99,,,-99.99,,2013-01-20 08:42:00,
2013-01-20 00:53:00,38.0,-99.9,-100.00,SE,135,3.0,6.0,-999,-99.99,,,-99.99,,2013-01-20 08:53:00,
2013-01-20 01:02:00,38.0,-99.9,-100.00,South,180,4.0,6.0,-999,-99.99,,,-99.99,,2013-01-20 09:02:00,
2013-01-20 01:12:00,38.0,-99.9,-100.00,SE,135,3.0,5.0,-999,-99.99,,,-99.99,,2013-01-20 09:12:00,
2013-01-20 01:22:00,38.0,-99.9,-100.00,SE,135,3.0,5.0,-999,-99.99,,,-99.99,,2013-01-20 09:22:00,
2013-01-20 01:33:00,38.0,-99.9,-100.00,SE,135,2.0,4.0,-999,-99.99,,,-99.99,,2013-01-20 09:33:00,
2013-01-20 01:43:00,38.0,-99.9,-100.00,SE,135,3.0,4.0,-999,-99.99,,,-99.99,,2013-01-20 09:43:00,
2013-01-20 01:53:00,38.0,-99.9,-100.00,SE,135,2.0,4.0,-999,-99.99,,,-99.99,,2013-01-20 09:53:00,
2013-01-20 02:03:00,38.0,-99.9,-100.00,SE,135,2.0,4.0,-999,-99.99,,,-99.99,,2013-01-20 10:03:00,
2013-01-20 02:12:00,37.0,-99.9,-100.00,SE,135,1.0,4.0,-999,-99.99,,,-99.99,,2013-01-20 10:12:00,
2013-01-20 02:23:00,37.0,-99.9,-100.00,SE,135,1.0,4.0,-999,-99.99,,,-99.99,,2013-01-20 10:23:00,
2013-01-20 02:33:00,37.0,-99.9,-100.00,SE,135,2.0,4.0,-999,-99.99,,,-99.99,,2013-01-20 10:33:00,
2013-01-20 02:43:00,37.0,-99.9,-100.00,East,90,2.0,3.0,-999,-99.99,,,-99.99,,2013-01-20 10:43:00,
2013-01-20 02:53:00,37.0,-99.9,-100.00,East,90,2.0,3.0,-999,-99.99,,,-99.99,,2013-01-20 10:53:00,
2013-01-20 03:03:00,37.0,-99.9,-100.00,SE,135,4.0,5.0,-999,-99.99,,,-99.99,,2013-01-20 11:03:00,
2013-01-20 03:12:00,37.0,-99.9,-100.00,SE,135,7.0,8.0,-999,-99.99,,,-99.99,,2013-01-20 11:12:00,
2013-01-20 03:22:00,37.0,-99.9,-100.00,SE,135,7.0,8.0,-999,-99.99,,,-99.99,,2013-01-20 11:22:00,
2013-01-20 03:33:00,36.0,-99.9,-100.00,SE,135,4.0,8.0,-999,-99.99,,,-99.99,,2013-01-20 11:33:00,
2013-01-20 03:43:00,37.0,-99.9,-100.00,SE,135,6.0,9.0,-999,-99.99,,,-99.99,,2013-01-20 11:43:00,
2013-01-20 03:54:00,37.0,-99.9,-100.00,SE,135,6.0,9.0,-999,-99.99,,,-99.99,,2013-01-20 11:54:00,
2013-01-20 04:03:00,37.0,-99.9,-100.00,SE,135,6.0,9.0,-999,-99.99,,,-99.99,,2013-01-20 12:03:00,
2013-01-20 04:13:00,37.0,-99.9,-100.00,SE,135,7.0,10.0,-999,-99.99,,,-99.99,,2013-01-20 12:13:00,
2013-01-20 04:23:00,37.0,-99.9,-100.00,SE,135,7.0,10.0,-999,-99.99,,,-99.99,,2013-01-20 12:23:00,
2013-01-20 04:34:00,37.0,-99.9,-100.00,SE,135,9.0,11.0,-999,-99.99,,,-99.99,,2013-01-20 12:34:00,
2013-01-20 04:44:00,37.0,-99.9,-100.00,SE,135,11.0,12.0,-999,-99.99,,,-99.99,,2013-01-20 12:44:00,
2013-01-20 04:53:00,37.0,-99.9,-100.00,SE,135,11.0,12.0,-999,-99.99,,,-99.99,,2013-01-20 12:53:00,
2013-01-20 05:03:00,37.0,-99.9,-100.00,SE,135,11.0,13.0,-999,-99.99,,,-99.99,,2013-01-20 13:03:00,
2013-01-20 05:12:00,37.0,-99.9,-100.00,SE,135,10.0,14.0,-999,-99.99,,,-99.99,,2013-01-20 13:12:00,
2013-01-20 05:23:00,37.0,-99.9,-100.00,SE,135,10.0,14.0,-999,-99.99,,,-99.99,,2013-01-20 13:23:00,
2013-01-20 05:33:00,37.0,-99.9,-100.00,SE,135,10.0,14.0,-999,-99.99,,,-99.99,,2013-01-20 13:33:00,
2013-01-20 05:43:00,37.0,-99.9,-100.00,SE,135,9.0,13.0,-999,-99.99,,,-99.99,,2013-01-20 13:43:00,
2013-01-20 05:53:00,37.0,-99.9,-100.00,SE,135,9.0,13.0,-999,-99.99,,,-99.99,,2013-01-20 13:53:00,
2013-01-20 06:03:00,37.0,-99.9,-100.00,SE,135,11.0,13.0,-999,-99.99,,,-99.99,,2013-01-20 14:03:00,
2013-01-20 06:12:00,37.0,-99.9,-100.00,SE,135,10.0,13.0,-999,-99.99,,,-99.99,,2013-01-20 14:12:00,
2013-01-20 06:23:00,37.0,-99.9,-100.00,SE,135,10.0,13.0,-999,-99.99,,,-99.99,,2013-01-20 14:23:00,
2013-01-20 06:33:00,37.0,-99.9,-100.00,SE,135,10.0,13.0,-999,-99.99,,,-99.99,,2013-01-20 14:33:00,
2013-01-20 06:43:00,37.0,-99.9,-100.00,SE,135,10.0,13.0,-999,-99.99,,,-99.99,,2013-01-20 14:43:00,
2013-01-20 06:53:00,37.0,-99.9,-100.00,SE,135,10.0,13.0,-999,-99.99,,,-99.99,,2013-01-20 14:53:00,
2013-01-20 07:04:00,37.0,-99.9,-100.00,SE,135,11.0,13.0,-999,-99.99,,,-99.99,,2013-01-20 15:04:00,
2013-01-20 07:13:00,36.0,-99.9,-100.00,SE,135,11.0,13.0,-999,-99.99,,,-99.99,,2013-01-20 15:13:00,
2013-01-20 07:23:00,36.0,-99.9,-100.00,SE,135,11.0,13.0,-999,-99.99,,,-99.99,,2013-01-20 15:23:00,
2013-01-20 07:33:00,37.0,-99.9,-100.00,SE,135,12.0,14.0,-999,-99.99,,,-99.99,,2013-01-20 15:33:00,
2013-01-20 07:43:00,37.0,-99.9,-100.00,SE,135,12.0,15.0,-999,-99.99,,,-99.99,,2013-01-20 15:43:00,
2013-01-20 07:53:00,37.0,-99.9,-100.00,SE,135,12.0,15.0,-999,-99.99,,,-99.99,,2013-01-20 15:53:00,
2013-01-20 08:03:00,37.0,-99.9,-100.00,SE,135,12.0,15.0,-999,-99.99,,,-99.99,,2013-01-20 16:03:00,
2013-01-20 08:12:00,37.0,-99.9,-100.00,SE,135,12.0,14.0,-999,-99.99,,,-99.99,,2013-01-20 16:12:00,
2013-01-20 08:23:00,37.0,-99.9,-100.00,SE,135,12.0,14.0,-999,-99.99,,,-99.99,,2013-01-20 16:23:00,
2013-01-20 08:33:00,37.0,-99.9,-100.00,SE,135,11.0,14.0,-999,-99.99,,,-99.99,,2013-01-20 16:33:00,
2013-01-20 08:43:00,38.0,-99.9,-100.00,SE,135,12.0,14.0,-999,-99.99,,,-99.99,,2013-01-20 16:43:00,
2013-01-20 08:53:00,38.0,-99.9,-100.00,SE,135,12.0,14.0,-999,-99.99,,,-99.99,,2013-01-20 16:53:00,
2013-01-20 09:03:00,38.0,-99.9,-100.00,SE,135,11.0,14.0,-999,-99.99,,,-99.99,,2013-01-20 17:03:00,
2013-01-20 09:13:00,38.0,-99.9,-100.00,SE,135,13.0,15.0,-999,-99.99,,,-99.99,,2013-01-20 17:13:00,
2013-01-20 09:23:00,38.0,-99.9,-100.00,SE,135,13.0,15.0,-999,-99.99,,,-99.99,,2013-01-20 17:23:00,
2013-01-20 09:33:00,39.0,-99.9,-100.00,SE,135,13.0,15.0,-999,-99.99,,,-99.99,,2013-01-20 17:33:00,
2013-01-20 09:43:00,40.0,-99.9,-100.00,SE,135,12.0,16.0,-999,-99.99,,,-99.99,,2013-01-20 17:43:00,
2013-01-20 09:53:00,40.0,-99.9,-100.00,SE,135,12.0,16.0,-999,-99.99,,,-99.99,,2013-01-20 17:53:00,
2013-01-20 10:03:00,40.0,-99.9,-100.00,SE,135,12.0,16.0,-999,-99.99,,,-99.99,,2013-01-20 18:03:00,
2013-01-20 10:13:00,41.0,-99.9,-100.00,SE,135,9.0,16.0,-999,-99.99,,,-99.99,,2013-01-20 18:13:00,
2013-01-20 10:24:00,41.0,-99.9,-100.00,SE,135,9.0,16.0,-999,-99.99,,,-99.99,,2013-01-20 18:24:00,
2013-01-20 10:33:00,42.0,-99.9,-100.00,SE,135,10.0,14.0,-999,-99.99,,,-99.99,,2013-01-20 18:33:00,
2013-01-20 10:43:00,43.0,-99.9,-100.00,SE,135,12.0,14.0,-999,-99.99,,,-99.99,,2013-01-20 18:43:00,
2013-01-20 10:53:00,44.0,-99.9,-100.00,SE,135,12.0,14.0,-999,-99.99,,,-99.99,,2013-01-20 18:53:00,
2013-01-20 11:03:00,44.0,-99.9,-100.00,SE,135,12.0,14.0,-999,-99.99,,,-99.99,,2013-01-20 19:03:00,
2013-01-20 11:12:00,45.0,-99.9,-100.00,SE,135,11.0,14.0,-999,-99.99,,,-99.99,,2013-01-20 19:12:00,
2013-01-20 11:23:00,45.0,-99.9,-100.00,SE,135,11.0,14.0,-999,-99.99,,,-99.99,,2013-01-20 19:23:00,
2013-01-20 11:33:00,47.0,-99.9,-100.00,SE,135,11.0,14.0,-999,-99.99,,,-99.99,,2013-01-20 19:33:00,
2013-01-20 11:43:00,48.0,-99.9,-100.00,SE,135,9.0,13.0,-999,-99.99,,,-99.99,,2013-01-20 19:43:00,
2013-01-20 11:53:00,48.0,-99.9,-100.00,SE,135,9.0,13.0,-999,-99.99,,,-99.99,,2013-01-20 19:53:00,
2013-01-20 12:03:00,49.0,-99.9,-100.00,SE,135,10.0,12.0,-999,-99.99,,,-99.99,,2013-01-20 20:03:00,
2013-01-20 12:12:00,50.0,-99.9,-100.00,SE,135,11.0,12.0,-999,-99.99,,,-99.99,,2013-01-20 20:12:00,
2013-01-20 12:23:00,50.0,-99.9,-100.00,SE,135,11.0,12.0,-999,-99.99,,,-99.99,,2013-01-20 20:23:00,
2013-01-20 12:33:00,50.0,-99.9,-100.00,SE,135,10.0,12.0,-999,-99.99,,,-99.99,,2013-01-20 20:33:00,
2013-01-20 12:43:00,51.0,-99.9,-100.00,SE,135,9.0,12.0,-999,-99.99,,,-99.99,,2013-01-20 20:43:00,
2013-01-20 12:54:00,51.0,-99.9,-100.00,SE,135,9.0,12.0,-999,-99.99,,,-99.99,,2013-01-20 20:54:00,
2013-01-20 13:04:00,52.0,-99.9,-100.00,SE,135,9.0,12.0,-999,-99.99,,,-99.99,,2013-01-20 21:04:00,
2013-01-20 13:13:00,53.0,-99.9,-100.00,SE,135,9.0,12.0,-999,-99.99,,,-99.99,,2013-01-20 21:13:00,
2013-01-20 13:23:00,53.0,-99.9,-100.00,SE,135,9.0,12.0,-999,-99.99,,,-99.99,,2013-01-20 21:23:00,
2013-01-20 13:34:00,53.0,-99.9,-100.00,SE,135,8.0,11.0,-999,-99.99,,,-99.99,,2013-01-20 21:34:00,
2013-01-20 13:43:00,54.0,-99.9,-100.00,SE,135,6.0,11.0,-999,-99.99,,,-99.99,,2013-01-20 21:43:00,
2013-01-20 13:54:00,54.0,-99.9,-100.00,SE,135,6.0,11.0,-999,-99.99,,,-99.99,,2013-01-20 21:54:00,
2013-01-20 14:03:00,58.0,-99.9,-100.00,SE,135,4.0,11.0,-999,-99.99,,,-99.99,,2013-01-20 22:03:00,
2013-01-20 14:13:00,58.0,-99.9,-100.00,SE,135,3.0,8.0,-999,-99.99,,,-99.99,,2013-01-20 22:13:00,
2013-01-20 14:23:00,58.0,-99.9,-100.00,SE,135,3.0,8.0,-999,-99.99,,,-99.99,,2013-01-20 22:23:00,
2013-01-20 14:34:00,57.0,-99.9,-100.00,NE,45,5.0,8.0,-999,-99.99,,,-99.99,,2013-01-20 22:34:00,
2013-01-20 14:43:00,55.0,-99.9,-100.00,East,90,1.0,8.0,-999,-99.99,,,-99.99,,2013-01-20 22:43:00,
2013-01-20 14:53:00,56.0,-99.9,-100.00,NE,45,6.0,9.0,-999,-99.99,,,-99.99,,2013-01-20 22:53:00,
2013-01-20 15:03:00,56.0,-99.9,-100.00,NE,45,6.0,9.0,-999,-99.99,,,-99.99,,2013-01-20 23:03:00,
2013-01-20 15:13:00,56.0,-99.9,-100.00,NE,45,5.0,11.0,-999,-99.99,,,-99.99,,2013-01-20 23:13:00,
2013-01-20 15:23:00,56.0,-99.9,-100.00,NE,45,5.0,11.0,-999,-99.99,,,-99.99,,2013-01-20 23:23:00,
2013-01-20 15:33:00,54.0,-99.9,-100.00,NE,45,7.0,11.0,-999,-99.99,,,-99.99,,2013-01-20 23:33:00,
2013-01-20 15:43:00,52.0,-99.9,-100.00,North,0,9.0,11.0,-999,-99.99,,,-99.99,,2013-01-20 23:43:00,
2013-01-20 15:53:00,52.0,-99.9,-100.00,North,0,9.0,11.0,-999,-99.99,,,-99.99,,2013-01-20 23:53:00,
2013-01-20 16:03:00,50.0,-99.9,-100.00,NE,45,8.0,11.0,-999,-99.99,,,-99.99,,2013-01-21 00:03:00,
2013-01-20 16:13:00,50.0,-99.9,-100.00,East,90,3.0,11.0,-999,-99.99,,,-99.99,,2013-01-21 00:13:00,
2013-01-20 16:23:00,50.0,-99.9,-100.00,East,90,3.0,11.0,-999,-99.99,,,-99.99,,2013-01-21 00:23:00,
2013-01-20 16:33:00,51.0,-99.9,-100.00,SE,135,1.0,10.0,-999,-99.99,,,-99.99,,2013-01-21 00:33:00,
2013-01-20 16:43:00,51.0,-99.9,-100.00,SE,135,3.0,6.0,-999,-99.99,,,-99.99,,2013-01-21 00:43:00,
2013-01-20 16:54:00,51.0,-99.9,-100.00,SE,135,3.0,6.0,-999,-99.99,,,-99.99,,2013-01-21 00:54:00,
2013-01-20 17:03:00,51.0,-99.9,-100.00,SE,135,7.0,8.0,-999,-99.99,,,-99.99,,2013-01-21 01:03:00,
2013-01-20 17:13:00,50.0,-99.9,-100.00,SE,135,8.0,9.0,-999,-99.99,,,-99.99,,2013-01-21 01:13:00,
2013-01-20 17:23:00,50.0,-99.9,-100.00,SE,135,8.0,9.0,-999,-99.99,,,-99.99,,2013-01-21 01:23:00,
2013-01-20 17:33:00,50.0,-99.9,-100.00,SE,135,10.0,12.0,-999,-99.99,,,-99.99,,2013-01-21 01:33:00,
2013-01-20 17:44:00,49.0,-99.9,-100.00,SE,135,9.0,12.0,-999,-99.99,,,-99.99,,2013-01-21 01:44:00,
2013-01-20 17:53:00,49.0,-99.9,-100.00,SE,135,9.0,12.0,-999,-99.99,,,-99.99,,2013-01-21 01:53:00,
2013-01-20 18:03:00,48.0,-99.9,-100.00,SE,135,11.0,14.0,-999,-99.99,,,-99.99,,2013-01-21 02:03:00,
2013-01-20 18:13:00,47.0,-99.9,-100.00,SE,135,12.0,14.0,-999,-99.99,,,-99.99,,2013-01-21 02:13:00,
2013-01-20 18:23:00,47.0,-99.9,-100.00,SE,135,12.0,14.0,-999,-99.99,,,-99.99,,2013-01-21 02:23:00,
2013-01-20 18:34:00,46.0,-99.9,-100.00,SE,135,13.0,15.0,-999,-99.99,,,-99.99,,2013-01-21 02:34:00,
2013-01-20 18:43:00,45.0,-99.9,-100.00,SE,135,12.0,15.0,-999,-99.99,,,-99.99,,2013-01-21 02:43:00,
2013-01-20 18:54:00,45.0,-99.9,-100.00,SE,135,12.0,15.0,-999,-99.99,,,-99.99,,2013-01-21 02:54:00,
2013-01-20 19:03:00,45.0,-99.9,-100.00,SE,135,12.0,14.0,-999,-99.99,,,-99.99,,2013-01-21 03:03:00,
2013-01-20 19:13:00,44.0,-99.9,-100.00,SE,135,15.0,16.0,-999,-99.99,,,-99.99,,2013-01-21 03:13:00,
2013-01-20 19:23:00,44.0,-99.9,-100.00,SE,135,15.0,16.0,-999,-99.99,,,-99.99,,2013-01-21 03:23:00,
2013-01-20 19:33:00,43.0,-99.9,-100.00,SE,135,15.0,19.0,-999,-99.99,,,-99.99,,2013-01-21 03:33:00,
2013-01-20 19:44:00,43.0,-99.9,-100.00,SE,135,15.0,19.0,-999,-99.99,,,-99.99,,2013-01-21 03:44:00,
2013-01-20 19:54:00,43.0,-99.9,-100.00,SE,135,15.0,19.0,-999,-99.99,,,-99.99,,2013-01-21 03:54:00,
2013-01-20 20:03:00,43.0,-99.9,-100.00,SE,135,15.0,17.0,-999,-99.99,,,-99.99,,2013-01-21 04:03:00,
2013-01-20 20:13:00,42.0,-99.9,-100.00,SE,135,16.0,17.0,-999,-99.99,,,-99.99,,2013-01-21 04:13:00,
2013-01-20 20:23:00,42.0,-99.9,-100.00,SE,135,16.0,17.0,-999,-99.99,,,-99.99,,2013-01-21 04:23:00,
2013-01-20 20:33:00,42.0,-99.9,-100.00,SE,135,17.0,19.0,-999,-99.99,,,-99.99,,2013-01-21 04:33:00,
2013-01-20 20:43:00,42.0,-99.9,-100.00,SE,135,16.0,19.0,-999,-99.99,,,-99.99,,2013-01-21 04:43:00,
2013-01-20 20:53:00,42.0,-99.9,-100.00,SE,135,16.0,19.0,-999,-99.99,,,-99.99,,2013-01-21 04:53:00,
2013-01-20 21:04:00,42.0,-99.9,-100.00,SE,135,15.0,19.0,-999,-99.99,,,-99.99,,2013-01-21 05:04:00,
2013-01-20 21:13:00,42.0,-99.9,-100.00,SE,135,14.0,19.0,-999,-99.99,,,-99.99,,2013-01-21 05:13:00,
2013-01-20 21:23:00,42.0,-99.9,-100.00,SE,135,14.0,19.0,-999,-99.99,,,-99.99,,2013-01-21 05:23:00,
2013-01-20 21:34:00,42.0,-99.9,-100.00,SE,135,16.0,19.0,-999,-99.99,,,-99.99,,2013-01-21 05:34:00,
2013-01-20 21:43:00,42.0,-99.9,-100.00,SE,135,14.0,19.0,-999,-99.99,,,-99.99,,2013-01-21 05:43:00,
2013-01-20 21:53:00,42.0,-99.9,-100.00,SE,135,14.0,19.0,-999,-99.99,,,-99.99,,2013-01-21 05:53:00,
2013-01-20 22:03:00,42.0,-99.9,-100.00,SE,135,16.0,17.0,-999,-99.99,,,-99.99,,2013-01-21 06:03:00,
2013-01-20 22:13:00,41.0,-99.9,-100.00,SE,135,16.0,18.0,-999,-99.99,,,-99.99,,2013-01-21 06:13:00,
2013-01-20 22:24:00,41.0,-99.9,-100.00,SE,135,16.0,18.0,-999,-99.99,,,-99.99,,2013-01-21 06:24:00,
2013-01-20 22:33:00,41.0,-99.9,-100.00,SE,135,16.0,19.0,-999,-99.99,,,-99.99,,2013-01-21 06:33:00,
2013-01-20 22:43:00,41.0,-99.9,-100.00,SE,135,15.0,19.0,-999,-99.99,,,-99.99,,2013-01-21 06:43:00,
2013-01-20 22:53:00,41.0,-99.9,-100.00,SE,135,15.0,19.0,-999,-99.99,,,-99.99,,2013-01-21 06:53:00,
2013-01-20 23:03:00,41.0,-99.9,-100.00,SE,135,15.0,19.0,-999,-99.99,,,-99.99,,2013-01-21 07:03:00,
2013-01-20 23:13:00,41.0,-99.9,-100.00,SE,135,15.0,17.0,-999,-99.99,,,-99.99,,2013-01-21 07:13:00,
2013-01-20 23:23:00,41.0,-99.9,-100.00,SE,135,15.0,17.0,-999,-99.99,,,-99.99,,2013-01-21 07:23:00,
2013-01-20 23:33:00,40.0,-99.9,-100.00,SE,135,16.0,18.0,-999,-99.99,,,-99.99,,2013-01-21 07:33:00,
2013-01-20 23:43:00,40.0,-99.9,-100.00,SE,135,14.0,18.0,-999,-99.99,,,-99.99,,2013-01-21 07:43:00,
2013-01-20 23:53:00,40.0,-99.9,-100.00,SE,135,14.0,17.0,-999,-99.99,,,-99.99,,2013-01-21 07:53:00,